CZ-4B DEB, 40533

Orbit data source: Space-Track

CZ-4B DEB, 40533 is space debris in LEO originally from a launch on Fri, 25 Oct 2013 UTC launched from the Jiuquan Satellite Launch Center, China (JSC). Debris objects in space refer to the collection of defunct objects orbiting the Earth. Examples of debris include non-operational satellites, rocket bodies, and fragments generated from explosions, collisions, or faulty payload assembly.

Loading next visibility...
Identifier
40533, 2013-057F
Orbit
LEO
Last TLE update
2 days ago
Origin
Manufacturer
SAST
Mission
Spacecraft
Bus & Motor
Unknown
Mass
Unknown
Launch date (UTC)
2013-10-25 (12 years ago)
Launch vehicle
Unknown
Launch site
Jiuquan Satellite Launch Center, China (JSC)
Object type
Payload
Rocket body
Debris
Shape & HBR
Unknown
Radar Cross Section
Small (<0.1 m²)

Expand to show TLE details & history

TLE from 2 days ago
0 CZ-4B DEB
1 40533U 13057F   25185.33977655  .00002080  00000-0  36077-3 0  9993
2 40533  74.9195  64.8876 0169738 295.7530  62.6205 14.59772074542622
Epoch: 2025-07-04T08:09Z
TLE epoch observation values (Epoch: 2025-07-04T08:09:16.693Z)
Latitude
-0.00009°
Longitude
19.97444°
Altitude
643.013 km
Speed
7.565 km/s
True Right ascension
04h 19m 33s
True Declination
0° 00' 00"
Sunlit
Object was in daylight at epoch
Visualization orbit readout
Latitude
74.37017°
Longitude
123.74889°
Altitude
820.529 km
Speed
7.389 km/s
Apparent Right ascension
21h 47m 37s
Apparent Declination
43° 03' 22"
Sunlit
Object is in daylight
Visualization observer readout
Local Sidereal Time
10:21:28
Azimuth
6.215° NNE
Elevation
-6.676°
Doppler factor
1
Orbital elements
Apogee altitude
811.43 km
Perigee altitude
571.435 km
Semi-major axis
7,069.57 km
Eccentricity
0.01697
Inclination
74.9195°
RAAN
64.8876°
Arg. of periapsis
295.753°
True anomaly
Unknown
Mean anomaly
62.6205°
Eccentric anomaly
Unknown
Mean motion
3.65135 °/min
Orbital period
98.59 mins
BSTAR
0.00036077
Loading maneuver chart data...
Loading SW <> Apogee altitude chart data...
Loading historical data...
Loading historical data...
Loading historical data...
Loading historical data...
Loading historical data...
Loading historical data...
Loading historical data...
Other satellites on launch #57 in the year 2013 (2013-10-25 UTC)

CZ-4B DEB Visibility forecast

Observer location: undefined°, undefined°

Span
Click to sort rows by Start time (UTC) header in descending order
Start Az.
Max El. time (UTC)
Max El. Az.
Max El.
End time (UTC)
End Az.
6 mins2025-07-06 01:50:17.168Z22.746° NE2025-07-06 01:53:17.168Z59.585° ENE16.979°2025-07-06 01:56:17.168Z95.632° ESE
8 mins2025-07-06 03:30:17.168Z332.422° NNW2025-07-06 03:34:17.168Z239.689° WSW41.825°2025-07-06 03:38:17.168Z177.662° S
7 mins2025-07-06 16:12:17.168Z158.206° S2025-07-06 16:15:17.168Z107.559° ESE30.568°2025-07-06 16:19:17.168Z39.54° NE
7 mins2025-07-06 17:53:17.168Z254.94° W2025-07-06 17:56:17.168Z303.384° NW23.087°2025-07-06 18:00:17.168Z353.666° N
|